Location: Chippewa Lake
(41.0698°N, 81.9010°W)
Time: 22:06:07
(UTC+00:00)

Cosmos 1666 - Pass Details

Date: 09 May 2021
Orbit: 495 x 519 km, 82.5° (Epoch: 17 June)

Event Time Altitude Azimuth Distance (km) Brightness Sun altitude
Rises 02:32:01 0° 6° (N) 2,599 6.9 -19.2°
Reaches altitude 10° 02:34:30 10° 22° (NNE) 1,707 5.6 -19.6°
Enters shadow 02:36:54 21° 61° (ENE) 1,154 4.3 -19.9°
